Theta_e
303 303 303 303 303 304 303 303 305 306 306 307 308 308 309 316 314 313 312 314 317 320 314 348 345 344 347 349 351 351 359 360 359 356 355 353 357 356 352 348 350 345 344 344 346
302 302 303 303 303 303 303 303 303 306 307 307 308 309 309 316 313 313 309 311 317 330 333 344 341 342 347 350 352 357 359 358 353 350 351 356 355 357 356 353 350 346 345 345 348
303 304 305 305 305 304 303 303 305 306 308 308 311 311 313 313 313 311 323 323 315 327 325 334 336 341 347 348 352 356 360 358 354 346 349 355 356 355 356 357 349 349 347 344 349
304 304 304 305 306 306 304 304 306 309 309 311 312 313 315 315 313 319 315 322 316 337 333 332 333 328 336 341 346 355 353 356 355 352 349 351 350 357 355 355 347 345 345 345 349
301 302 303 304 305 307 304 305 309 309 308 314 312 314 314 313 311 320 320 321 326 337 332 322 333 322 331 333 334 348 348 347 351 348 346 346 353 357 356 349 344 344 344 345 348
301 302 303 303 306 308 304 308 309 309 308 316 311 315 315 309 311 314 327 323 323 327 326 318 328 319 322 324 333 334 341 341 340 339 342 347 350 355 353 347 345 346 345 344 348
300 301 302 303 308 308 306 309 308 308 315 315 315 315 315 312 313 317 322 325 323 323 318 319 319 320 316 322 321 327 326 327 330 337 344 348 358 360 351 347 346 347 346 344 347
300 300 301 302 307 306 309 308 308 308 319 315 317 317 316 316 317 313 313 322 324 319 316 318 317 315 318 318 318 324 325 329 330 332 341 345 350 358 348 348 347 347 346 346 347
300 300 301 303 307 306 307 307 308 319 316 319 319 317 316 311 314 309 309 316 324 320 319 318 316 314 316 318 319 317 328 328 332 333 346 345 349 357 347 348 347 346 346 346 347
300 300 301 302 307 307 307 307 310 318 318 318 319 314 311 307 308 309 310 317 322 321 320 316 314 313 310 315 322 323 322 328 334 335 344 349 350 357 349 348 349 346 345 346 347
300 301 302 303 306 307 307 307 301 303 304 304 304 306 307 307 308 311 310 317 316 318 319 314 314 316 316 315 320 322 325 328 330 335 348 349 348 360 354 349 347 346 345 345 346
300 302 302 304 306 307 308 304 306 306 305 303 303 304 305 306 307 308 311 319 319 319 315 314 316 315 314 314 318 320 321 323 325 331 344 346 349 358 356 354 349 347 346 346 346
300 303 303 307 306 307 307 307 308 307 302 303 305 306 306 306 308 307 308 309 315 320 317 316 316 315 315 314 315 316 320 320 326 329 345 346 351 359 359 356 353 351 347 345 346
302 304 304 309 306 306 306 307 309 306 301 306 306 306 306 305 307 308 308 310 313 320 321 319 320 318 316 315 315 313 317 321 322 325 334 342 346 352 358 360 356 354 352 350 348
305 305 307 309 307 306 307 310 306 302 304 308 305 307 304 305 305 307 309 310 312 313 314 322 321 322 317 317 316 316 318 319 321 324 329 333 348 345 354 362 360 356 353 351 350
306 305 309 309 308 308 309 309 303 303 306 306 305 305 305 304 306 307 313 312 314 317 316 314 315 319 322 320 318 319 323 321 322 322 328 326 339 332 352 355 355 355 353 353 351
306 305 309 309 307 308 310 301 303 304 305 305 305 305 305 304 306 307 314 314 316 317 318 319 320 317 318 321 320 321 320 324 326 326 329 324 328 331 333 347 348 350 351 350 352
306 305 308 308 307 308 305 303 307 309 305 304 305 305 306 305 306 307 308 313 314 315 316 319 320 319 316 319 322 322 321 323 328 328 326 323 329 329 328 337 342 344 346 346 349
306 304 309 307 307 308 301 304 306 307 306 305 305 305 305 305 307 305 308 314 315 313 317 318 320 315 316 318 319 324 325 322 322 320 324 326 324 324 325 329 334 341 342 344 345
305 303 306 307 307 305 302 306 306 306 307 305 306 306 305 305 306 305 307 310 314 312 311 315 314 315 316 318 319 319 323 329 322 329 326 324 323 332 326 327 331 339 344 343 343
303 300 306 307 305 301 304 304 307 307 308 306 305 305 304 306 305 306 305 310 310 312 311 312 314 314 317 319 320 320 321 324 327 324 329 323 324 319 325 328 329 334 342 342 343
300 299 306 307 304 300 305 305 306 307 308 306 305 303 303 304 305 305 307 310 310 309 311 313 314 316 317 317 317 318 320 322 332 329 323 323 329 322 322 324 327 329 337 341 342
303 301 306 305 304 303 303 306 306 307 309 308 307 305 305 305 306 306 310 312 312 312 312 312 316 316 316 316 315 317 316 316 318 320 327 332 329 321 319 319 319 321 330 339 342
303 303 301 299 299 306 307 307 308 307 308 308 308 306 306 306 305 306 310 311 310 312 314 311 311 314 315 315 313 314 315 315 315 321 327 329 328 321 324 319 319 320 319 325 339
298 300 302 306 305 307 307 307 308 309 309 309 310 308 310 308 306 306 306 308 310 312 312 309 311 309 311 312 313 313 314 314 316 316 320 326 323 322 321 322 322 319 323 323 324
302 306 305 306 307 308 308 309 310 311 310 308 311 310 310 310 306 307 305 304 308 308 309 308 306 312 313 313 313 315 314 315 316 317 318 321 320 322 324 328 339 340 340 334 325
304 305 306 308 309 309 310 309 309 309 307 308 309 307 307 309 308 308 306 303 304 306 307 309 309 313 312 311 312 316 315 319 323 320 323 321 323 324 339 340 336 336 340 342 340
Wind_Speed
26 27 28 28 28 26 24 22 19 17 18 18 20 19 18 13 11 6 8 18 27 10 15 22 15 14 13 4 3 4 1 3 4 2 2 5 5 2 6 13 6 7 7 19 28
29 29 30 30 29 29 28 24 21 19 18 19 19 15 15 11 8 11 17 18 13 17 25 24 10 12 3 5 3 3 2 5 4 3 2 4 6 9 7 12 3 10 22 32 28
32 32 33 32 32 31 30 27 23 22 21 21 15 11 10 9 4 6 16 10 24 26 22 21 21 7 4 4 4 5 5 4 2 3 6 7 4 4 13 5 8 24 25 24 30
33 34 35 35 35 33 31 24 24 25 20 17 12 6 7 3 1 6 19 4 28 29 23 17 9 8 5 6 6 4 8 9 5 5 1 5 6 4 10 4 15 24 30 24 25
35 36 36 38 38 34 29 21 24 24 20 12 8 1 1 1 7 19 10 8 25 27 22 7 14 6 8 6 4 9 3 3 6 8 8 6 7 5 11 9 19 23 22 20 21
37 38 38 41 38 32 27 19 23 24 16 10 2 5 2 2 1 16 5 15 27 25 16 10 11 5 5 5 8 6 8 10 8 8 7 5 3 6 5 17 19 25 24 19 19
39 40 41 44 39 31 22 20 24 18 9 10 10 3 2 9 8 12 3 8 25 28 8 13 12 9 6 4 8 4 4 4 6 4 6 3 2 5 12 17 21 21 21 19 17
42 43 44 47 41 28 20 23 17 9 7 7 10 1 5 6 12 10 5 7 14 21 1 8 5 2 2 3 4 5 4 1 4 9 6 10 9 3 13 18 20 21 20 19 18
45 45 45 45 38 20 21 20 10 7 8 10 3 2 5 16 8 13 9 3 12 21 6 6 3 2 1 3 4 5 4 7 3 7 3 9 5 9 14 15 18 19 20 19 16
45 46 47 42 32 19 23 6 9 6 5 0 1 2 3 7 14 15 7 9 5 8 2 1 3 2 2 5 8 5 4 4 6 7 8 7 8 13 15 16 17 18 19 19 19
47 47 49 38 22 20 20 3 6 4 7 1 7 4 7 16 4 13 6 5 5 5 7 6 5 19 22 13 2 5 5 6 4 5 6 11 10 15 16 13 15 17 17 19 19
47 49 50 34 14 16 20 7 6 6 7 4 7 6 14 4 4 19 21 4 5 5 6 4 14 14 8 5 5 7 3 4 4 3 6 6 14 10 18 22 20 18 19 19 17
46 48 49 30 7 11 9 7 14 7 1 7 4 4 7 2 2 12 7 5 4 6 7 7 6 12 13 7 11 8 16 6 3 2 7 4 5 6 12 8 13 15 17 16 20
45 47 44 22 3 9 3 15 23 7 5 5 4 5 10 3 3 7 12 1 2 6 7 8 8 10 13 15 11 9 15 12 7 2 4 8 5 5 8 17 17 18 18 17 20
45 46 33 12 6 3 11 26 4 3 3 3 4 5 9 6 6 11 15 5 4 5 2 6 7 10 13 15 14 11 9 14 12 6 4 4 3 6 11 12 19 21 21 20 19
44 42 19 9 8 17 22 16 3 5 5 3 2 5 6 6 6 5 7 6 2 4 2 6 3 3 15 13 16 6 1 4 3 4 9 12 7 5 7 16 18 20 20 21 21
44 37 8 9 10 22 15 3 4 4 4 2 3 4 3 6 7 7 4 9 5 6 8 7 4 2 5 2 14 13 10 2 3 5 13 11 12 13 5 12 18 21 23 22 21
43 27 4 10 26 17 4 5 3 2 2 2 2 1 3 4 2 6 2 3 7 3 3 5 2 3 4 7 8 14 10 6 8 4 12 6 8 7 20 10 12 18 18 16 18
45 22 3 24 25 8 5 3 3 2 4 3 2 2 1 2 1 3 3 3 2 3 4 3 6 7 5 4 2 7 17 11 4 1 1 9 5 7 6 19 18 14 11 18 22
29 12 6 35 15 2 4 3 2 0 4 1 5 3 3 2 2 0 2 3 5 2 2 3 5 3 8 6 10 8 3 7 3 7 5 3 7 10 11 10 13 7 13 17 21
8 4 19 30 6 5 3 3 4 4 3 3 5 3 4 4 4 3 4 3 6 4 4 4 3 6 6 5 4 4 9 5 7 8 8 2 6 6 12 15 15 13 15 16 19
6 3 24 26 4 2 2 6 6 4 3 4 3 6 6 6 5 4 7 4 5 6 3 2 1 5 9 13 8 5 5 7 8 12 6 4 7 4 10 9 12 16 16 17 20
5 3 14 13 4 4 5 5 4 4 4 4 3 3 2 5 3 4 3 3 7 4 6 5 2 4 8 2 2 0 4 4 5 3 15 13 7 6 6 7 9 10 8 13 17
3 4 4 4 1 2 6 5 6 5 8 3 4 2 1 2 4 4 4 6 4 5 9 5 1 6 7 1 5 7 14 10 2 5 6 14 8 8 11 8 7 8 7 9 11
3 1 2 4 3 5 3 3 7 5 6 7 4 3 4 3 2 4 5 3 4 5 3 4 4 7 18 21 14 14 18 17 6 8 4 6 10 9 11 11 9 6 5 6 9
2 2 1 3 7 5 2 2 6 6 3 7 7 9 4 4 4 3 3 2 4 2 5 6 4 8 17 14 16 16 17 16 17 19 12 15 12 4 5 3 8 6 5 8 12
0 1 1 3 3 2 1 5 10 13 6 11 11 4 5 12 11 12 12 6 5 8 8 9 4 3 6 3 7 6 18 12 5 9 4 6 1 6 2 6 7 9 9 11 12
Wind_Direction
8 7 5 1 357 351 347 347 348 343 337 333 331 322 325 316 306 269 236 236 218 175 161 154 154 151 164 184 238 138 288 237 251 201 160 150 148 67 125 142 177 184 141 142 149
9 8 5 2 357 353 349 344 341 339 337 327 321 321 321 320 301 243 281 240 202 178 164 158 160 155 157 183 216 203 190 226 221 166 167 157 172 132 147 156 83 101 118 141 149
9 8 5 2 359 354 350 344 340 336 334 329 312 310 318 328 298 237 353 278 196 179 183 167 146 139 144 152 211 186 215 222 304 117 153 150 140 140 145 208 178 150 148 154 155
8 6 3 1 357 352 349 346 340 338 333 337 317 293 300 330 308 9 336 345 171 171 153 147 148 139 146 190 203 210 228 261 310 351 269 176 149 152 173 215 155 163 158 157 164
6 3 1 359 353 350 347 345 338 342 336 331 333 204 185 1 257 359 347 131 164 167 168 152 160 137 161 192 170 234 209 258 247 292 287 162 172 182 204 114 141 151 156 162 165
5 2 359 355 351 349 345 343 334 334 333 330 171 159 159 241 215 360 44 151 175 177 173 160 180 157 164 185 189 221 238 279 286 272 281 226 148 158 117 135 147 156 162 167 172
3 1 358 355 353 348 347 341 332 340 343 352 134 122 46 244 325 339 198 196 187 189 167 187 161 167 140 141 241 260 312 319 231 225 231 188 280 220 142 145 153 164 165 170 176
3 0 358 355 351 347 350 338 334 356 11 47 131 104 253 294 336 349 353 203 203 187 239 201 240 50 180 270 10 180 113 193 276 182 241 151 239 119 148 148 165 167 174 177 184
1 359 358 353 352 352 353 338 1 80 58 107 124 107 337 328 331 330 317 214 169 183 205 198 153 204 306 73 5 358 195 197 285 200 158 182 222 158 163 164 173 176 177 182 184
359 356 357 352 353 358 0 24 62 74 57 105 308 310 329 324 320 310 343 160 133 139 21 133 128 158 59 146 202 203 220 222 174 207 183 196 220 161 173 171 181 179 185 186 191
356 354 354 351 359 7 17 21 14 346 46 256 278 247 281 321 338 1 5 126 103 128 163 178 160 207 207 208 116 167 196 216 212 204 141 201 222 178 177 180 185 185 189 195 197
353 353 351 348 353 23 46 80 114 276 311 279 255 242 274 292 336 357 9 143 158 177 132 126 221 221 189 192 185 232 240 252 289 226 176 214 232 178 179 197 193 185 191 199 190
351 351 348 347 2 14 63 95 340 322 91 302 252 304 306 162 48 2 24 320 179 185 191 176 234 171 185 184 196 219 229 227 209 351 211 136 292 179 199 189 196 203 210 195 197
349 350 346 348 84 359 65 341 332 177 54 284 344 351 337 329 65 13 357 74 298 216 176 233 234 197 197 204 174 213 216 239 254 320 218 167 259 234 184 197 202 204 205 200 198
346 350 349 5 330 17 325 332 2 137 353 17 2 358 336 58 315 347 5 21 352 308 106 222 197 201 207 211 182 236 162 206 230 212 298 226 197 257 186 202 209 207 208 206 202
344 352 359 0 12 335 329 335 144 52 241 3 64 1 15 360 9 300 7 15 47 312 255 241 239 198 221 212 201 175 332 136 117 138 236 226 213 255 191 210 214 213 211 204 202
343 348 354 33 331 343 331 47 42 153 351 35 344 16 78 348 358 358 46 26 48 25 11 335 245 179 248 223 200 180 157 267 228 201 234 207 223 233 197 220 210 204 209 206 201
340 347 302 11 351 346 348 51 187 36 44 6 30 68 105 1 348 340 48 70 24 68 68 359 275 22 12 196 200 202 180 170 196 192 228 182 225 238 225 239 218 215 210 198 199
339 355 82 345 345 339 66 59 184 207 311 307 325 107 331 324 94 355 27 115 112 353 99 27 274 328 287 331 2 211 210 194 99 240 178 202 243 295 243 220 229 222 178 195 199
335 339 337 348 334 107 78 230 183 319 316 144 196 196 191 245 147 115 231 138 141 208 233 161 291 284 310 310 222 196 259 197 198 196 241 263 193 228 198 224 234 207 193 205 201
5 17 354 355 18 48 103 274 300 315 341 236 216 240 208 184 185 212 219 162 129 171 107 157 163 294 352 230 235 189 226 267 179 200 213 172 245 217 192 200 222 209 211 203 202
10 6 358 355 50 33 29 315 292 283 341 297 229 210 195 189 210 235 213 151 142 143 126 165 196 265 242 265 289 318 278 236 224 221 234 146 247 207 210 213 223 215 206 207 204
352 294 1 19 61 349 324 299 273 313 322 312 289 197 165 197 219 224 211 110 132 139 167 173 95 312 299 299 72 129 323 319 288 312 214 222 238 267 237 250 237 232 222 207 207
8 8 340 34 60 57 336 323 313 307 292 263 280 309 91 241 243 222 211 179 152 138 142 108 152 210 250 29 21 302 301 322 16 271 253 232 229 198 262 247 255 254 237 200 200
29 199 179 342 324 318 239 267 297 314 355 335 298 191 67 275 277 226 231 152 73 143 81 108 244 247 261 270 275 268 275 287 268 245 232 251 219 233 220 231 247 217 283 263 227
80 29 77 273 288 301 314 244 288 306 329 286 257 280 280 249 227 307 316 108 204 130 138 179 243 276 276 255 249 262 262 262 258 252 246 260 265 327 317 334 355 3 311 261 233
225 113 148 268 276 279 263 319 315 305 257 259 287 319 257 250 244 249 248 232 218 165 176 175 209 253 258 293 315 274 237 228 93 32 305 237 269 310 349 41 15 348 341 311 298